STARLINK-35148 (65844 NORAD) Tracking and Keplerian Element Data

This shows tracking and keplerian element data for the satellite.

Feedback or suggestion? Click here.




ElementValue
Catalog65844
NameSTARLINK-35148
Epoch Orbit1253
Epoch Day354.02305686
Epoch Year2025
RAAN98.5612
Inclination53.1621
Eccentricity1.2E-06
Argument of Perigee353.5503
Mean Anonmoly6.5498
Mean Motion15.30222493
Decay Rate0.00022334
L11 65844U 25221X 25354.02305686 .00022334 00000+0 76338-3 0 9991
L22 65844 53.1621 98.5612 0000012 353.5503 6.5498 15.30222493 12539



Live tracking and technical data element details for STARLINK-35148 (NORAD 65844). STARLINK-35148 can be tracked NOW for your location showing map with azimuth and elevation plus other details from your city location.







IsCatalogInMostPopularTable: catalog: 65844, numindb: 4
Update: records affected: 1



GetName: 65844 STARLINK-35148

Hit Count: updated at: Mon, 09 Feb 2026 08:01:20 GMT